map of KMS home
KMS - Airport
Location
City:  Kumasi, Ghana
ICAO:DGSI
IATA:KMS

Details
Type:Airport (Aerodrome, Airfield)
Use:Public/Civil
Latitude:642'52"N (6.714564)
Longitude:135'27"W (-1.590818)
Datum:WGS 1984
Elevation:942 ft (287 m)
Variation:3.61W (WMM2015 magnetic declination)
0.10 annual change
Runways:1
Longest:6502 × 148 ft (1982 × 45 m), paved

Time
Time Zone:UTC+0
Local Time:

Weather
TAF:DGSI 260500Z 2606/2706 23010KT 9999 SCT016
BECMG 2614/2616 17010KT
TEMPO 2617/2620 TS FEW030CB BKN011 FM 270000 00000KT CAVOK

Related Locations
Nearby:
Farthest:FUN: 12297 mi / 19790 km
Funafuti Atoll [Intl], TV

Find:

   beyond  
but within

Other Information
Maps:
NOTAMs:
Links:
Sources:

  
flag of Ghana   

Sectional Chart

Flight Planning
at skyvector.com

Satellite Image

Google Maps Satellite view

 

Copyright © 2004-2017 Karl L. Swartz. All rights reserved.
The Great Circle Mapper name and logo are trademarks of the Great Circle Mapper.
All other trademarks mentioned herein belong to their respective owners.
Please see credits for attibutions and further copyright information.

  Follow gcmap on Facebook Follow gcmap on Twitter Follow gcmap on Google+ GCmap on LinkedIn

hCard Microformat

Geo Microformat